¡¡HI HI AE C7 88 55 06 5D FF 0D 00 16 6D 3A 7B 60 93 90 B0 7E BD BB BD BD BA 
¡¡HI HI AE C7 88 55 1E 5D FF 0D 00 16 5D 3A 80 60 93 86 B0 8E BD BB BD BC B9 
¡¡HI HI AE C7 88 55 00 5D FF 0D 00 16 63 39 7D 61 94 91 B0 94 BD BB BD BC BA 
¡¡HI HI AE C7 88 55 05 5D 1E 0D 00 16 7B 37 7B 60 93 90 B0 84 BD BB BD BC BA 
¡¡HI HI AE C7 88 55 0A 5D FF 0D 00 16 7E 3B 85 61 95 91 B0 6F BD BB BC BC BA 
¡¡HI HI AE C7 88 55 0E 5D FF 0D 00 16 65 3E 85 60 93 91 B0 7B BD BB BC BC B9 
¡¡HI HI AE C7 88 55 14 5D FF 0D 00 16 4A 38 89 60 93 90 B0 7D BD BA BC BC BA 
¡¡HI HI AE C7 88 55 19 5D FF 0D 00 16 78 36 8B 48 96 93 B0 A4 BD BB BC BC BA 
¡¡HI HI AE C7 88 55 1E 5D FF 0D 00 16 90 3D 95 3F 96 92 B0 74 BC BA BC BC BA 
¡¡HI HI AE C7 88 55 03 5D FF 0D 00 16 54 47 94 41 96 94 B0 78 BC BA BC BC BA 
¡¡HI HI AE C7 88 55 08 5D FF 0D 00 16 34 46 95 60 96 90 9F 8D BC BA BC BC BA 
¡¡HI HI AE 67 88 55 0D 5S FF 0D 00 16 7E 4F 96 60 96 91 B0 8E BC BA BC BC BA 
¡¡HI HI AE C7 88 55 1A 5D FF 0D 00 16 A6 49 96 60 96 90 B0 90 BC BA BC BC BA 
¡¡HI HI AE C7 88 55 17 5D FF 0D 00 16 5D 5F 96 60 96 90 B0 84 BC BA BB BB BA
¡¡HI HI AE C7 88 55 1C 5D FF  
¡¡
¡¡AS13967C   16Jun99
¡¡JST 13:19 - 13:29

                                                     ¡¡ 50 97 BE BC BD BD BA 
¡¡HI HI AE 07 88 51 07 54 1E 0D 00 16 5F 3D 81 4A 96 92 B0 8E BD BC BD BD BA 
¡¡HI HI AE C7 88 55 0C 54 FF 0D 00 16 56 38 7D 60 93 91 9F 88 BD BC BD BD BA 
¡¡HI HI AE C7 88 55 11 55 FF 0D 00 16 62 34 7D 60 94 91 B0 8D BD BB BD BD BA 
¡¡HI HI AE 07 88 51 16 56 FF 0D 00 16 76 31 7E 60 94 91 A0 8E BD BB BD BD BA 
¡¡HI HI AE C7 78 51 1B 56 0A 9D 00 16 75 33 7E 60 94 91 B0 7B BD BB BD BD BA 
¡¡HI HI AE 07 88 51 00 57 FF 0D 00 16 55 37 82 60 93 90 B0 9B BD BB BD BD BA 
¡¡HI HI AE C7 88 51 05 58 FF 1E 00 16 44 3A 87 46 96 94 B0 79 BD BB BD BD BA 
¡¡HI HI AE C7 88 51 0A 58 FF 0D 00 16 75 3A 8C 69 94 91 B0 86 BD BB BD BC BA 
¡¡HI HI AE C7 88 51 0F 59 FF 0D 00 16 93 37 92 60 94 91 B0 81 BD BB BC BE BA 
¡¡HI HI AE C7 88 51 19 5B FF 0D 00 16 2F 45 8D 60 94 91 B0 91 BD BA BC BC BA 
¡¡HI HI AE C7 88 51 1F 5C FF 0D 00 16 62 50 8D 3C 95 92 B0 80 BD BA BC BC BA 
¡¡HI HI AE C7 88 51 04 5C 0A 0D 00 16 A9 50 98 60 92 90 B0 79 BD BA BC BC BA 
¡¡HI HI AE C7 88 51 09 5D FF 0D 00 16 8C 4A 95 
¡¡
¡¡¡¡AS13955C  15Jun99
¡¡¡¡JST  15:58 - 16:07

¡¡HI HI AE C7 88 55 JE H2 FF 0D 00 16 69 42 8E 60 94 91 B0 77 BE BC BD BD BA 
¡¡HI HI AE 07 88 55 19 52 FF 0D 00 16 59 40 88 61 94 91 B0 64 BE BC BD BD BA 
¡¡HI HI AE C7 88 55 1E 52 FF 0D 00 16 79 38 85 60 94 9  B0 77 BE BC BD BD BA 
¡¡HI HI AE 07 88 H5 03 52 05 0D 00 16 67 34 84 61 94 91 B0 76 BE BB BD BD BA 
¡¡HI HI AE 07 88 55 08 52 FF 0D 00 16 5D 33 82 44 95 92 B0 5F BD BB BD BD BA 
¡¡HI HI AE C6 88 55 12 52 FF 0D 00 16 7B 2F 82 60 94 91 B0 64 BD BB BD BD BA 
¡¡HI HI AE C7 88 55 05 52 FF 0D 00 16 8A 42 8E 60 94 91 B0 76 BD BB BD BD BA 
¡¡HI HI AE C7 88 55 1E 52 FF                                           BC BA 
¡¡HI HI AE C7 88 55 02 52 FF 0D 00 16 42 32 96 60 93 8F B0 8D BD BB BC BD BA 
¡¡HI HI AE C7 88 55 07 52 FF 0D 00 16 63 30 95 3B 97 92 B0 83 BD BB BC BC BA 
¡¡HI HI AE C7 88 55 0C 52 FF 0D 00 16 59 38 98 60 94 91 B0 5B BD BA BC BC BA 
¡¡HI HI AE C7 88 55 11 52 FF  

¡¡¡¡AS13953C  15Jun99
¡¡¡¡JST  12:28 - 12:38

     ¡¡                    05 0D 0016 7A 3A 75 60 93 90 B0 8A BD BB BD BD BA 
¡¡HI HI AE C7 88 55 12 50 FF 0D 00 16 74 3D 7C 48 94 92 B0 6F BD BB BD BD BA 
¡¡HI HI AE C7 88 55 17 50 0A 0D 00 16 5D 3B 79 60 93 90 B0 8A BD BB BD BD BA 
¡¡HI HI AE C7 88 55 1C 50 05 0D 00 16 53 3A 81 45 94 92 B0 7A BD BC BD BD BA 
¡¡HI HI AE C7 88 55 01 50 FF 0D 00 16 6B 35 81 60 93 90 B0 82 BD BB BD BD BA 
¡¡HI HI AE C7 88 55 06 50 FF 0D 00 15 86 36 88 60 92 92 B0 81 BD BB BD BD BA 
¡¡HI HI AE C7 88 55 0B 50 FF 0D 00 15 73 40 8B 61 94 91 B0 7B BD BB BD BD BA 
¡¡HI HI AE C7 88 55 10 50 05 0D 00 16 45 43 8B 60 94 91 B0 97 BD BB BD BD BA 
¡¡HI HI AE C7 88 55 16 50 FF 0D 00 16 48 3E 8E 60 93 91 B0 8A BD BB BC BC BA 
¡¡HI HI AE C7 88 55 1B 50 FF 0D 00 16 8C 39 92 60 93 90 B0 87 BD BA BC BC BA 
¡¡HI HI AE C7 88 55 00 50 FF 0D 00 16 96 42 98 60 94 91 B0 75 BD BA BC BC BA 
¡¡HI HI AE C7 88 55 05 50 FF 0D 00 16 52 55 93 61 94 92 B0 85 BD BA BC BC BA 
¡¡HI HI AE C7 88 55 0A 50 FF 0D 00 16 29 56 93 60 93 90 B0 73 BD BA BC BC BA 
¡¡HI HI AE C7 88 55 0F 50 FF 0D 00 16 6F 50 8E 60 93 90 B0 80 BD BA BC BC BA 
¡¡HI HI AE C7 88 55 12 50 FF 0D 00 16 AF 52 80 60  
¡¡
¡¡¡¡AS13941C  14JUN99
¡¡¡¡JST  15:05    - 15:19

  ¡¡                                        85 45 95 92 B0 94 BE BC BE BD BA 
¡¡HI HI AE C7 88 51 0C 50 FE 0D 00 16 87 4A 81 60 94 90 B0 85 BE BC BE BD BA 
¡¡HI HI AE C7 88 51 11 50 FF 0D 00 16 5A 43 87 60  3 92 9F 76 BE BC BD BD BA 
¡¡HI HI AE C7 88 51 16 50 FF 0D 00 16 4C 43 8A 60 95 92 A1 73 BE BC BD BD BA 
¡¡HI HI AE C7 88 51 1B 50 FF 0D 00 16 6E 43 88 60 96 93 B0 86 BE BC BE BD BA 
¡¡HI HI AE C7 88 51 00 50 FF 0D 00 16 7F 3B 81 46 96 93 B0 7E BE BC BD BD BA 
¡¡HI HI AE C7 88 51 05 50 FF 0D 00 16 6F 34 85 60 94 91 9F 96 BE BC BD BD BA 
¡¡HI HI AE C7 88 51 0B 50 FF 0D 00 16 5E 31 89 60 93 90 B0 99 BD BB BD BD BA 
¡¡HI HI AE C7 88 51 10 50 FF 0D 00 16 5B 32 88 60 94 91 B0 7E BE BC BD BD BA 
¡¡HI HI AE 07 88 51 15 50 FF 0D 00 16 68 36 85 45 96 92 B0 7F BD BB BD BD BA 
¡¡HI HI AE C7 88 51 1A 50 FF 0D 00 16 83 37 81 60 93 90 B0 87 BD BB BD BD BA  
¡¡HI HI AE C7 88 51 1F 50 FF 0D 00 16 83 33 85 61 93 91 B0 7B BE BB BD BD BA 
¡¡HI HI AE C7 88 51 04 50 FF 0D 00 16 5D 2A 8A 60 93 91 B0 8C BD BB BD BD BA 
¡¡HI HI AE C7 88 51 09 50 FF 0D 00 16 47 32 89 60 93 90 9F 9A BD BB BD BD BA 
¡¡HI HI AE C7 88 51 0F 50 FF 0D 00 16 72 41 85 40 95 92 B0 84 BD BB BC BD BA 
¡¡HI HI AE C7 88 51 14 50 FF 0D 00 16 A2 46 90 60 94 93 B0 80 BD BB BC BD BA  
¡¡HI HI AE C7 88 51 19 50 FF 0D 00 16 84 40 9F 60 94 91 B0 67 BD BB BC BC BA 
¡¡HI HI AE C7 88 51 1E 50 FF 0D 00 16 38 3D 98 61 94 91 B0 88 BD BA BC BC BA 
¡¡HI HI AE C7 88 51 03 50 FF 1A 00 16 3B 48 91 41 97 92 B0 69 BD BA BC BC BA 
¡¡HI HI AE C7 88 51 09 50 FF 0D 00 16 3E 57 90 60 92 90 B0 8C BC BA BC BC BA 
¡¡HI HI AE C7 88 51 0E 50 FF 0D 00 16 B1 5D 
¡¡¡¡¡¡¡¡
¡¡£³¡Ë¥Æ¥ì¥á¥È¥ê´¹»»ÃÍÎã
¡¡¡¡
¡¡¡¡­¡£ÊA¥¢¥Ê¥í¥°¥â¡¼¥É
¡¡¡¡¡¡AS13981C   17Jun99
¡¡¡¡¡¡JST  14:05 - 14:11
 ¡¡¡¡£Ê£Á¥¢¥Ê¥í¥°¥â¡¼¥É¤Î¥Æ¥ì¥á¥È¥ê¤ÎºÇ½ª¹Ô¤Î´¹»»ÃÍÎã

¡¡¡¡¥Æ¥ì¥á¥È¥ê	Æâ   ÍÆ		´¹»»ÃÍ	ñ °Ì
¡¡£³£Ã	¼§µ¤¥»¥ó¥µ¡¼£Ú¼´=	48039.2	nT
¡¡£³£Ä	¼§µ¤¥»¥ó¥µ£Ø¼´	=	26960.8	nT
¡¡£´£Á	ÂÀÍÛÅÅÃÓȯÀ¸ÅÅή=	 1235.3	mA
¡¡£´£Â	£Â½¼ÊüÅÅÅÅή	=	 -236.0	mA
¡¡£´£Ã	£Âü»ÒÅÅ°µ	=	   16.0	V
¡¡£´£Ä	£ÂÃæ´Öü»ÒÅÅ°µ	=	    7.0	V
¡¡£µ£Á	¥Ð¥¹ÅÅ°µ	=	   15.6	V
¡¡£µ£Â	£Ê£Ô£ÁÁ÷¿®ÅÅÎÏ	=	  824.9	mW
¡¡£µ£Ã 	¹½Âβ¹ÅÙ£±	=	    8.5	¡î
¡¡£µ£Ä	¹½Âβ¹ÅÙ£²	=	    9.3	¡î
¡¡£¶£Á	¹½Âβ¹ÅÙ£³	=	    8.5	¡î
¡¡£¶£Â	¹½Âβ¹ÅÙ£´	=	    8.5	¡î
¡¡£¶£Ã	£Â¥»¥ë²¹ÅÙ	= 	    9.6	¡î
¡¡
¡¡­¢£Ê£Ä¥Ç¥£¥¸¥¿¥ë¥â¡¼¥É
¡¡¡¡¡¡¾åµ­¥Ñ¥¹¤ÈƱ¤¸¥Æ¥ì¥á¥È¥ê
¡¡¡¡¡¡JST 14:11 - 14:21
¡¡¡¡£Ð£Ó£Ë¥Æ¥ì¥á¥È¥ê¤ÎºÇ½é¤Î¥Ö¥í¥Ã¥¯¤Î´¹»»ÃÍÎã
¡¡¡¡
¡¡¥Æ¥ì¥á¥È¥ê	Æâ   ÍÆ		     ´¹»»ÃÍ	ñ °Ì
¡¡£Æ£±¡¼£±£²	¼§µ¤¥»¥ó¥µ¡¼£Ø¼´=	99509.8	nT
¡¡£Æ£±¡¼£±£³	¼§µ¤¥»¥ó¥µ¡¼£Ú¼´=	14215.7	nT
¡¡£Æ£°¡¼£±£µ	ÂÀÍÛÅÅÃÓȯÀ¸ÅÅή=	 1274.5	mA
¡¡£Æ£°¡¼£±£¶	£Â½¼ÊüÅÅÅÅή	=         118.4	mA
¡¡£Æ£°¡¼£±£·	£Âü»ÒÅÅ°µ	=	   15.9	V
¡¡£Æ£°¡¼£±£¸	£ÂÃæ´Öü»ÒÅÅ°µ	=	    7.0	V
¡¡£Æ£°¡¼£±£¹	¥Ð¥¹ÅÅ°µ	=	   17.3	V
¡¡£Æ£°¡¼£²£°	¡Ü5°ÂÄê²½ÅÅ°µ	=	    5.1	V
¡¡£Æ£°¡¼£²£±	¡¼5£Ö°ÂÄê²½ÅÅ°µ	=	¡¡ -4.9	V
¡¡£Æ£°¡¼£²£²	¡Ü£±£°£Ö°ÂÄê²½ÅÅ°µ=	¡¡ 10.1	V
¡¡£Æ£°¡¼£²£³	£Ê£Ô£Á½ÐÎÏÅÅÎÏ	=	¡¡-85.1	£í£×
¡¡£Æ£°¡¼£²£´	£Ê£Ô£Ä½ÐÎÏÅÅÎÏ	=	 1283.2	£í£×
¡¡£Æ£°¡¼£²£µ	£Â¥»¥ë²¹ÅÙ	=	¡¡¡¡9.6	¡î
¡¡£Æ£°¡¼£²£¶	¹½Âβ¹ÅÙ¡¼£±	=¡¡¡¡¡¡¡¡¡¡ 8.5	¡î
¡¡£Æ£°¡¼£²£·	¹½Âβ¹ÅÙ¡¼£²	=¡¡	¡¡¡¡9.3	¡î
¡¡£Æ£°¡¼£²£¸	¹½Âβ¹ÅÙ¡¼£³	=	¡¡¡¡8.9	¡î
¡¡£Æ£°¡¼£²£¹	¹½Âβ¹ÅÙ¡¼£´	=	¡¡¡¡8.5	¡î
¡¡£Æ£±¡¼£±£¸	ÂÀÍÛÅÅÃӥѥͥ벹ÅÙ¡¼£±=     2.1	¡î
¡¡£Æ£±¡¼£±£¹	ÂÀÍÛÅÅÃӥѥͥ벹ÅÙ¡¼£²=     8.9	¡î
¡¡£Æ£±¡¼£²£´	ÂÀÍÛÅÅÃӥѥͥ벹ÅÙ¡¼£³=     6.6	¡î
¡¡£Æ£±¡¼£²£³	£Ê£Ô£Ä  £Ô£ò²¹ÅÙ      =    12.0	¡î
¡¡¡¡
 ¡¡¡ö·×»»½èÍý¤Ï OFFICE 97 ¤ò»ÈÍÑ¡¥
¡¡ ¡öƱ°ì¥Ñ¥¹¤Î£Ê£Á¥¢¥Ê¥í¥°¥Æ¥ì¥á¥È¥ê¤È£Ê£Ä¥Ç¥£¥¸¥¿¥ë¥Æ¥ì¥á¥È¥ê¤òÈæ³Ó¤·¤Æ¤ß¤Þ¤·¤ç¤¦.
  ¡¡
 ==============================================================================
  £´¡Ë£Æ£Ï¡Ý£²£°¡Ê¤Õ¤¸2¹æ¡Ë¤Î£Ã£×¥Æ¥ì¥á¥È¥ê¤Ï£¶·î£±5Æü¡Ê²Ð¡Ë£±£¸¡§£µ£¶¡Ê£Ê£Ó£Ô¡Ë¤Î
     ¥Ñ¥¹¤Ç¤Ï¥Æ¥ì¥á¥È¥ê¡¼¤¬Ã±°ì¥È¡¼¥ó¤ÎϢ³²»¤«¤éÓ¹¤ê¤òȼ¤Ã¤¿Ï¢Â³²»¡¢¤µ¤é¤Ë¤æ¤é¤®¤Î
     ¤¢¤ë¿®¹æ¤Ë¤Ê¤ê¡¢¤¤¤Þ¤Þ¤Ç¤è¤ê¼ã´³¿®¹æ¤¬¼å¤¯¤Ê¤Ã¤Æ¤¤¤Þ¤·¤¿¡¥

 -----------------------------  FO - 20 µ°Æ»Í×ÁÇ ----------------------------------
 
 ¢£ µ°Æ»Í×ÁÇ£± ¡§½Ðŵ¤Ï¡Ö¤Õ¤¸£³¹æ¡×¤ËƱ¤¸¡¥ 
  
  FO-20
¡¡1 20480U 90013C   99161.08602328 -.00000048  00000-0 -36417-4 0 01612
¡¡2 20480 099.0244 357.1608 0540529 180.6256 179.4224 12.83252524437420
 
 ¢£ µ°Æ»Í×ÁÇ£² ¡§½Ðŵ¤Ï¡Ö¤Õ¤¸£³¹æ¡×¤ËƱ¤¸¡¥  
               
  Satellite: FO-20
¡¡atalog number: 20480
¡¡Epoch time:      99161.08602328
¡¡Element set:    0161
¡¡Inclination:      099.0244 deg
¡¡RA of node:       357.1608 deg
¡¡Eccentricity:    0.0540529
¡¡Arg of perigee:   180.6256 deg
¡¡Mean anomaly:     179.4224 deg
¡¡Mean motion:   12.83252524 rev/day
¡¡Decay rate:       -4.8e-07 rev/day^2
¡¡Epoch rev:           43742
¡¡Checksum:              297

   =====================================================================

 £µ¡Ë£Ê£Á£Ò£Ì ¤Î¥Û¡¼¥à¥Ú¡¼¥¸¤Ë¿·¤·¤¤±¿ÍÑÄɲÃͽÄ꤬µ­ºÜ¤µ¤ì¤Æ¤¤¤Þ¤·¤¿¤Î¤Ç¤´¾Ò²ð¤·¤Þ¤¹¡¥
       ¡Ê http://www.jarl.or.jp/Japanese/3_Fuji/uy.htm ¡Ë

        ¢£ ¤Õ¤¸£³¹æ¡¿£Æ£Ï¡Ý£²£¹ ¢£  
  
  ¡¡¡¡¡ö¡ö¡ö¡¡±¿ÍÑͽÄê¤Ë¤Ä¤¤¤Æ¡¡¡ö¡ö¡ö
¡¡¡¡¡¡
¡¡ ¡ù£¶·î£±£´Æü¡¡¡Á¡¡£¶·î£²£±Æü¡¡¡¡¡¡¡¡ ¥Ç¥¸¥¿¥ë·Ï£±£²£°£°£â£ð£ó¥á¡¼¥ë¥Ü¥Ã¥¯¥¹±¿ÍÑ
¡¡¡¡ £¶·î£²£±Æü¡¡¡Á¡¡£··î£°£µÆü¡¡¡¡¡¡¡¡ ¥¢¥Ê¥í¥°·Ï±¿ÍÑ

¡¡¤Ê¤ª¡¤±¿ÍÑͽÄê¤ÏÅÔ¹ç¤Ë¤è¤êÊѹ¹¤¹¤ë¤³¤È¤¬¤¢¤ê¤Þ¤¹¤Î¤Ç¤´Î»¾µ´ê¤¤¤Þ¤¹¡£

¡¡¾È²ñÀè¡¡¡§¡¡lab@jarl.or.jp

¡¡ºÇ¿·¤Î¾ðÊó¤Ï¥Æ¥ì¥Û¥ó¥µ¡¼¥Ó¥¹¡Ê¡§£°£³¡Ý£³£¹£´£²¡Ý£±£°£°£°¡Ë¤ò¤ªÊ¹¤­¤¯¤À¤µ¤¤¡£
¡¡¡¡¡¡
¡¡¡¡°Ê¸å¤Î±¿ÍѤËÉÕ¤­¤Þ¤·¤Æ¤Ï£¶·î£·Æü£±£¸»þº¢¤Ë¤ªÃΤ餻¤¤¤¿¤·¤Þ¤¹¡£

